Location: Fayetteville
(35.0530°N, 78.8790°W)
Time: 14:58:04
(UTC-04:00)

ISS - Visible Passes

Search period start: 25 October 2014 00:00
Search period end: 03 November 2014 23:00
Orbit: 412 x 416 km, 51.6° (Epoch: 25 October)

Date Brightness Start Highest point End Pass type
(mag) Time Alt. Az. Time Alt. Az. Time Alt. Az.
25 Oct -1.5 18:52:14 10° NNW 18:54:37 18° NNE 18:56:59 10° ENE visible
25 Oct -1.4 20:28:15 10° WNW 20:30:15 30° W 20:30:15 30° W visible
26 Oct -3.4 19:38:58 10° NW 19:42:19 83° NE 19:43:44 32° SE visible
27 Oct -2.8 18:49:51 10° NW 18:53:03 42° NE 18:56:14 10° ESE visible
27 Oct -0.5 20:27:30 10° W 20:29:27 15° SW 20:30:21 14° SW visible
28 Oct -1.2 19:37:26 10° WNW 19:40:21 28° SW 19:43:15 10° SSE visible
29 Oct -2.6 18:47:52 10° NW 18:51:09 57° SW 18:54:25 10° SE visible
31 Oct -0.2 18:46:36 10° W 18:48:54 18° SW 18:51:12 10° S visible
